Terminal Aerodrome Forecast
Issued by NWS Portland, OR

Home | Current Version | Previous Version | Text Only | Print | Product List | Glossary On
Versions: 1 2 3 4 5 6 7 8 9 10 11 12 13 14 15 16 17 18 19 20 21 22 23 24 25 26 27 28 29 30 31 32 33 34 35 36 37 38 39
000
FTUS46 KPQR 292323
TAFHIO
TAF
KHIO 292323Z 3000/3024 05002KT P6SM SCT007 SCT120
     FM300600 VRB02KT 4SM BR SCT005
     FM301000 00000KT 1SM BR SCT005
     FM302000 VRB03KT 4SM BR SKC
     FM302200 06004KT P6SM SKC=

USA.gov is the U.S. government's official web portal to all federal, state and local government web resources and services.